Tracking 30009 objects as of 7-Dec-2024
HD Live streaming from Space Station
objects crossing your sky now

GSLV R/B

Track GSLV R/B now!


NORAD ID: 58991
Int'l Code: 2024-033B
Perigee: 223.2 km
Apogee: 33,522.1 km
Inclination: 19.0 °
Period: 587.8 minutes
Semi major axis: 23243 km
RCS: Unknown
Launch date: February 17, 2024
Source: India (IND)
Launch site: SRIHARIKOTA (SRI)

Note: This is a ROCKET BODY
Your satellite tracking list
Your tracking list is empty




NASA's NSSDC Master Catalog

Two Line Element Set (TLE):
1 58991U 24033B   24341.69519774  .00010922  00000-0  12981-2 0  9993
2 58991  19.0125 152.2269 7163007  37.5541 355.4580  2.44988423  6750
Source of the keplerian elements: AFSPC